カタログに戻る

STARLINK-36736

運用中通信VLEO
NORAD 67911·PAYLOAD·🇺🇸 United States

打ち上げ Feb 22, 2026 から Vandenberg Space Force Base

Loading…

次のパス (今後24時間)

TLE

最新Source: CelesTrak SupGP

元期: Sep 15, 2026, 04:15 UTC

1 67911C 26036H   26258.17756944 -.00041639  00000+0 -15084-2 0  2589
2 67911  43.0021 255.1686 0001486 269.6777  10.8706 15.27593532    17

AllMySatでSTARLINK-36736をリアルタイム追跡

Download on the App Store